Regional Weather Roundup
Issued by NWS

Home | Current Version | Previous Version | Text Only | Print | Product List | Glossary Off
Versions: 1 2 3 4 5 6 7 8 9 10 11 12 13 14 15 16 17 18 19 20 21 22 23 24 25 26 27 28 29 30 31 32 33 34 35 36 37 38 39 40 41 42 43 44 45 46 47 48 49 50

000
ASUS43 KDTX 221610
RWRMI
MICHIGAN HOURLY REGIONAL WEATHER ROUNDUP
NATIONAL WEATHER SERVICE DETROIT/PONTIAC MI
1200 PM EDT TUE JUL 22 2014

NOTE: "FAIR" INDICATES FEW OR NO CLOUDS BELOW 12,000 FEET WITH NO
SIGNIFICANT WEATHER AND/OR OBSTRUCTION TO VISIBILITY.

MIZ047>049-052>055-059>063-066>070-074>076-081>083-221700-
SOUTHEAST LOWER MICHIGAN

CITY           SKY/WX    TMP DP  RH WIND       PRES   REMARKS
ADRIAN         SUNNY     83  64  52 SW9       30.07F
ALMA           SUNNY     82  65  57 SW10G17   30.02S
ANN ARBOR      SUNNY     83  63  50 SW9       30.06F
BAD AXE        SUNNY     82  64  54 SW12      30.02F
DETROIT CITY   SUNNY     85  64  49 VRB5      30.06F
DETROIT        MOSUNNY   84  66  54 SW6       30.07F
FLINT          SUNNY     84  63  49 SW13      30.04F
GROSSE ILE     SUNNY     79  70  73 S7        30.06F
HILLSDALE      SUNNY     82  65  55 SW6       30.07F
HOWELL         SUNNY     82  61  48 SW13      30.05F

CITY           SKY/WX    TMP DP  RH WIND       PRES   REMARKS
JACKSON        SUNNY     83  65  54 SW14      30.05F
LAMBERTVILLE   SUNNY     86  63  45 SW8       30.07F
LANSING        SUNNY     82  65  56 S14       30.03F
LAPEER         NOT AVBL
MASON          SUNNY     81  64  56 S7        30.05F
MONROE         SUNNY     84  63  48 SW9       30.05F
MT. CLEMENS    MOSUNNY   82  67  61 SE9       30.05F
PONTIAC        SUNNY     84  62  47 SW10G17   30.05F
PORT HOPE        N/A     83  64  52 SW8       30.00F
PORT HURON     SUNNY     81  68  65 S9        30.06F
TRI CITIES     SUNNY     83  66  56 SW14      30.01F
YPSILANTI      SUNNY     88  63  43 S10       30.06F
$$
MIZ043>046-050>051-056>058-064>065-071>073-077>080-221700-
SOUTHWEST LOWER MICHIGAN

CITY           SKY/WX    TMP DP  RH WIND       PRES   REMARKS
BATTLE CREEK   SUNNY     82  66  58 S13G22    30.04F
BENTON HARBOR  SUNNY     81  67  62 SW10      30.03R
BIG RAPIDS     MOSUNNY   80  65  60 SW10G23   29.98F
COLDWATER      SUNNY     83  66  57 SW14      30.06F
HOLLAND        SUNNY     83  67  58 SW15G23   30.03R
GRAND RAPIDS   MOSUNNY   83  68  60 SW12      30.02S
KALAMAZOO      SUNNY     82  66  58 S13       30.03F
MARSHALL       SUNNY     81  65  59 S12G17    30.04F
MUSKEGON       PTSUNNY   78  65  63 S15G24    30.00F
$$
MIZ016>042-221700-
NORTHERN LOWER MICHIGAN

CITY           SKY/WX    TMP DP  RH WIND       PRES   REMARKS
ALPENA         SUNNY     83  65  54 S15       29.93F
BEAVER ISLAND  CLOUDY    76  68  75 S14G26    29.82F
BELLAIRE       MOSUNNY   84  66  55 SW13G22   29.90S
CADILLAC       MOSUNNY   80  68  67 S14       29.98R
CHARLEVOIX     PTSUNNY   81  68  65 S13G30    29.90F
FRANKFORT      CLOUDY    81  65  58 S15G22    29.91S
GAYLORD        MOSUNNY   81  64  56 S17G26    29.94F
GRAYLING       SUNNY     81  65  58 S12G20    29.96F
HARBOR SPRINGS PTSUNNY   82  67  61 SW9       29.88F
HOUGHTON LAKE  SUNNY     80  64  58 SW14      29.99F
MANISTEE       CLOUDY    79  66  65 SW14G24   29.95S
OSCODA         SUNNY     84  63  49 S17G24    29.97F
PELLSTON       PTSUNNY   83  67  58 S15       29.87F
TRAVERSE CITY  PTSUNNY   80  67  64 S13G21    29.91S
$$
MIZ007>008-015-221700-
EASTERN UPPER MICHIGAN

CITY           SKY/WX    TMP DP  RH WIND       PRES   REMARKS
KINROSS        PTSUNNY   81  68  65 S20       29.83F
MACKINAC ISLAN PTSUNNY   78  66  67 S10G16    29.85F
NEWBERRY       CLOUDY    71  65  82 S23G36    29.78F
S. S. MARIE    PTSUNNY   80  67  64 S12G23    29.81F
$$
MIZ004>006-011>014-085-221700-
CENTRAL UPPER MICHIGAN

CITY           SKY/WX    TMP DP  RH WIND       PRES   REMARKS
MANISTIQUE     CLOUDY    64  61  91 S10G21    29.81F
ESCANABA       CLOUDY    72  64  78 S16G26    29.78F
MENOMINEE      MOSUNNY   82  70  65 SW13      29.81F
SAWYER-GWINN   MOSUNNY   82  72  69 SW23G31   29.75F
$$
MIZ001>003-009>011-084-221700-
WESTERN UPPER MICHIGAN

CITY           SKY/WX    TMP DP  RH WIND       PRES   REMARKS
IRON MOUNTAIN  PTSUNNY   84  71  65 W16G24    29.79F
HOUGHTON       PTSUNNY   72  64  76 W29G40    29.72R
COPPER HARBOR    N/A     72  65  78 NW14G22   29.65F
IRONWOOD       CLOUDY    72  64  78 W16G23    29.84R
$$

ABBREVIATIONS USED IN REMARKS
   TC - TEMPERATURE IN CELSIUS
  WCI - WIND CHILL INDEX
   HX - HEAT INDEX
  VSB - VISIBILITY



USA.gov is the U.S. government's official web portal to all federal, state and local government web resources and services.